Home   Weather   Karlsruhe   Past weeks

Flag for Germany Past Weather in Karlsruhe, Baden-Württemberg, Germany — Yesterday and Last 2 Weeks

Now
68 °F

Clear.


Feels Like: 68 °F
Forecast: 66 / 83 °F
Wind: 3 mph from North

Location: Karlsruhe - Baden Wurttemberg

Current Time: Jul 21, 2017 at 2:51:37 am

Latest Report: Jul 21, 2017 at 12:20 am


Visibility: 10 mi

Pressure: 29.95 "Hg

Humidity: 83%

Dew Point: 63 °F

Location of KarlsruheLocation

Past Weather in Karlsruhe — Graph

°F

Karlsruhe Temperature Yesterday

Maximum temperature yesterday: 79 °F (at 3:50 pm)
Minimum temperature yesterday: 68 °F (at 12:28 pm)
Average temperature yesterday: 73 °F

High & Low Weather Summary for the Past Weeks

 TemperatureHumidityPressure
High93 °F (Jul 6, 4:50 pm)100% (Jul 17, 5:20 am)30.27 "Hg (Jul 17, 5:20 am)
Low52 °F (Jul 13, 5:20 am)28% (Jul 6, 5:20 pm)29.80 "Hg (Jul 10, 4:20 am)
Average73 °F64%30.01 "Hg
* Reported Jul 6 4:50 am — Jul 21 12:20 am, Karlsruhe. Weather by CustomWeather, © 2017

Note: Actual official high and low records may vary slightly from our data, if they occured in-between our weather recording intervals... More about our weather records

Advertising

Karlsruhe Weather History for the Previous 24 Hours

Scroll right to see more
 ConditionsComfort  
Time TempWeatherWind HumidityBarometerVisibility
12:20 am
Fri, Jul 21
68 °FClear.3 mph83%29.95 "Hg10 mi
11:20 pm
Thu, Jul 20
70 °FClear.5 mph78%29.95 "Hg10 mi
10:50 pm70 °FClear.5 mph78%29.95 "Hg10 mi
10:20 pm70 °FClear.3 mph78%29.95 "Hg10 mi
9:50 pm72 °FPassing clouds.7 mph73%29.92 "HgN/A
9:20 pm72 °FSunny.6 mph73%29.92 "Hg10 mi
8:50 pm72 °FSunny.9 mph73%29.92 "Hg10 mi
8:20 pm73 °FScattered clouds.8 mph69%29.89 "HgN/A
7:50 pm73 °FScattered clouds.8 mph69%29.89 "HgN/A
7:20 pm73 °FSunny.13 mph69%29.89 "Hg10 mi
6:50 pm75 °FScattered clouds.13 mph65%29.89 "HgN/A
6:20 pm73 °FScattered clouds.8 mph74%29.89 "HgN/A
5:50 pm72 °FScattered showers. Scattered clouds.9 mph78%29.92 "HgN/A
5:20 pm72 °FScattered showers. Scattered clouds.6 mph88%29.92 "HgN/A
4:50 pm68 °FThundershowers. Scattered clouds.7 mph88%29.92 "Hg6 mi
4:33 pm72 °FThundershowers. Broken clouds.8 mph78%29.92 "Hg4 mi
4:20 pm77 °FScattered showers. Scattered clouds.6 mph57%29.89 "HgN/A
3:50 pm79 °FPassing clouds.7 mph54%29.89 "HgN/A
3:20 pm77 °FPassing clouds.7 mph61%29.92 "HgN/A
2:50 pm75 °FPassing clouds.8 mph69%29.92 "HgN/A
1:50 pm72 °FScattered clouds.6 mph78%29.92 "HgN/A
1:20 pm68 °FBroken clouds.5 mph88%29.95 "HgN/A
12:50 pm68 °FScattered showers. Broken clouds.7 mph94%29.95 "Hg6 mi
12:28 pm68 °FRain showers. Partly sunny.12 mph88%29.95 "Hg2 mi
12:20 pm70 °FScattered showers. Broken clouds.8 mph83%29.92 "Hg6 mi
11:50 am70 °FScattered showers. Broken clouds.5 mph83%29.92 "HgN/A
11:20 am70 °FLight rain. Broken clouds.3 mph83%29.92 "Hg6 mi
10:50 am73 °FRain showers. Broken clouds.8 mph65%29.92 "Hg4 mi
10:31 am75 °FSprinkles. Partly sunny.12 mph57%29.89 "HgN/A
10:20 am75 °FScattered showers. Partly sunny.13 mph57%29.89 "HgN/A
9:50 am75 °FSunny.16 mph57%29.89 "Hg10 mi
9:20 am75 °FSunny.15 mph57%29.89 "Hg10 mi
8:50 am75 °FSunny.15 mph54%29.89 "Hg10 mi
8:20 am75 °FSunny.13 mph54%29.89 "Hg10 mi
7:50 am73 °FSunny.13 mph61%29.89 "Hg10 mi
7:20 am72 °FSunny.9 mph65%29.86 "Hg10 mi
6:50 am73 °FSunny.9 mph61%29.86 "Hg10 mi
6:20 am73 °FSunny.12 mph57%29.86 "Hg10 mi
5:50 am73 °FSunny.10 mph57%29.86 "Hg10 mi
5:20 am73 °FClear.12 mph57%29.86 "Hg10 mi
4:50 am72 °FClear.8 mph65%29.86 "Hg10 mi
Weather by CustomWeather, © 2017

See weather overviewHow to use our weather pages